Location: Newark
(33.6439°N, 114.9881°W)
Time: 13:55:39
(UTC+00:00)

A-11 Canister half - Pass Details

Date: 25 August 2019
Orbit: 1527 x 1682 km, 47.3° (Epoch: 22 October)

Event Time Altitude Azimuth Distance (km) Brightness Sun altitude
Rises 15:20:15 0° 175° (S) 4,750 11.7 26.3°
Reaches altitude 10° 15:25:02 10° 155° (SSE) 3,801 11.6 27.3°
Maximum altitude 15:30:10 16° 122° (ESE) 3,398 12.2 28.3°
Drops below altitude 10° 15:35:23 10° 89° (E) 3,875 12.7 29.4°
Sets 15:40:16 0° 70° (ENE) 4,893 12.5 30.4°
